Change the Weather History Date:

Wednesday, December 26, 2012

  Actual Average Record
Temperature  
Mean Temperature 45 °F -  
Max Temperature 55 °F 57 °F 84 °F (1987)
Min Temperature 35 °F 35 °F 6 °F (1983)
Degree Days  
Heating Degree Days 20    
Moisture  
Dew Point 33 °F    
Average Humidity 71    
Maximum Humidity 90    
Minimum Humidity 61    
Precipitation  
Precipitation 0.00 in - - ()
Sea Level Pressure  
Sea Level Pressure 29.89 in    
Wind  
Wind Speed 13 mph (WNW)    
Max Wind Speed 23 mph    
Max Gust Speed 32 mph    
Visibility 10 miles    
Events      
Averages and records for this station are not official NWS values.
T = Trace of Precipitation, MM = Missing Value Source: NWS Daily Summary

Daily Weather History Graph

Daily Weather History Graph

Search for Another Location

Airport or City:

Trip Planner

Search our weather history database for the weather conditions in past years. The results will help you decide how hot, cold, wet, or windy it might be!

Date:

Astronomy

Dec. 26, 2012 Rise Set
Actual Time 6:44 AM CST 4:49 PM CST
Civil Twilight 6:18 AM CST 5:16 PM CST
Nautical Twilight 5:47 AM CST 5:47 PM CST
Astronomical Twilight 5:17 AM CST 6:16 PM CST
Moon 3:41 PM CST (12/26) 5:09 AM CST (12/26)
Length of Visible Light 10h 58m
Length of Day
10h 04m
Waxing Gibbous, 97% of the Moon is Illuminated
Dec 26
Waxing Gibbous
Dec 28
Full
Jan 4
Last Quarter
Jan 11
New
Jan 18
First Quarter

Hourly Weather History & Observations

Time (CST) Temp. Windchill Dew Point Humidity Pressure Visibility Wind Dir Wind Speed Gust Speed Precip Events Conditions
12:56 AM 55.9 °F - 53.1 °F 90% 29.58 in 10.0 mi SSW 9.2 mph - N/A   Mostly Cloudy
1:56 AM 55.0 °F - 50.0 °F 83% 29.60 in 10.0 mi SW 10.4 mph - N/A   Partly Cloudy
2:56 AM 53.1 °F - 46.9 °F 80% 29.61 in 10.0 mi SW 10.4 mph 24.2 mph N/A   Scattered Clouds
3:56 AM 51.1 °F - 42.1 °F 71% 29.63 in 10.0 mi SW 9.2 mph 24.2 mph N/A   Overcast
4:56 AM 48.9 °F - 39.0 °F 69% 29.66 in 10.0 mi West 17.3 mph 23.0 mph N/A   Overcast
5:09 AM 46.4 °F 40.1 °F 37.4 °F 71% 29.68 in 10.0 mi West 15.0 mph 31.1 mph N/A   Overcast
5:35 AM 44.6 °F 37.4 °F 33.8 °F 66% 29.71 in 10.0 mi West 16.1 mph 24.2 mph N/A   Overcast
5:56 AM 42.1 °F 32.6 °F 32.0 °F 67% 29.73 in 10.0 mi West 23.0 mph 32.2 mph N/A   Overcast
6:04 AM 42.8 °F 34.0 °F 30.2 °F 61% 29.74 in 10.0 mi West 20.7 mph 32.2 mph N/A   Overcast
6:56 AM 39.9 °F 31.8 °F 30.0 °F 68% 29.77 in 10.0 mi WSW 15.0 mph 26.5 mph N/A   Overcast
7:56 AM 39.0 °F 30.3 °F 30.0 °F 70% 29.81 in 10.0 mi West 16.1 mph 26.5 mph N/A   Overcast
8:56 AM 39.0 °F 29.9 °F 30.9 °F 73% 29.85 in 10.0 mi West 17.3 mph 29.9 mph N/A   Overcast
9:56 AM 39.9 °F 31.1 °F 30.9 °F 70% 29.88 in 10.0 mi West 17.3 mph 25.3 mph N/A   Overcast
10:56 AM 39.9 °F 31.8 °F 30.0 °F 68% 29.90 in 10.0 mi West 15.0 mph 24.2 mph N/A   Overcast
11:56 AM 39.9 °F 31.1 °F 30.0 °F 68% 29.90 in 10.0 mi West 17.3 mph 25.3 mph N/A   Overcast
12:56 PM 39.9 °F 32.1 °F 28.9 °F 65% 29.91 in 10.0 mi West 13.8 mph 28.8 mph N/A   Overcast
1:56 PM 41.0 °F 32.2 °F 28.9 °F 62% 29.93 in 10.0 mi NW 18.4 mph 26.5 mph N/A   Overcast
2:56 PM 39.9 °F 32.5 °F 30.0 °F 68% 29.95 in 10.0 mi WNW 12.7 mph 24.2 mph N/A   Overcast
3:56 PM 39.9 °F 32.9 °F 28.9 °F 65% 29.98 in 10.0 mi NW 11.5 mph 21.9 mph N/A   Overcast
4:56 PM 39.0 °F 32.3 °F 28.9 °F 67% 30.01 in 10.0 mi WNW 10.4 mph 19.6 mph N/A   Overcast
5:56 PM 39.0 °F 31.4 °F 28.9 °F 67% 30.04 in 10.0 mi WNW 12.7 mph 24.2 mph N/A   Overcast
6:56 PM 37.9 °F 32.1 °F 28.9 °F 70% 30.06 in 10.0 mi NW 8.1 mph 19.6 mph N/A   Overcast
7:56 PM 37.9 °F 30.9 °F 28.9 °F 70% 30.09 in 10.0 mi NW 10.4 mph - N/A   Overcast
8:56 PM 37.0 °F 29.3 °F 28.9 °F 73% 30.11 in 10.0 mi WNW 11.5 mph 18.4 mph N/A   Overcast
9:28 PM 35.6 °F 28.6 °F 28.4 °F 75% 30.10 in 10.0 mi NW 9.2 mph 17.3 mph N/A   Scattered Clouds
9:43 PM 35.6 °F 28.6 °F 28.4 °F 75% 30.10 in 10.0 mi NW 9.2 mph - N/A   Mostly Cloudy
9:56 PM 37.0 °F 30.4 °F 28.9 °F 73% 30.12 in 10.0 mi NW 9.2 mph - N/A   Overcast
10:56 PM 36.0 °F 27.1 °F 28.0 °F 73% 30.12 in 10.0 mi NNW 13.8 mph 19.6 mph N/A   Overcast
11:56 PM 36.0 °F 28.0 °F 28.9 °F 76% 30.11 in 10.0 mi NNW 11.5 mph - N/A   Overcast